Wind_Speed
8 9 10 10 10 8 7 6 5 6 6 6 5 4 4 4 4 4 4 3 3 3 3 4 3 3 2 2 1 2 3 3 4 4 4 3 3 2 1 1 2 3 5 6 8 8 10 11 13
7 7 8 9 9 7 6 6 6 6 6 5 5 5 5 5 4 4 4 4 4 4 5 5 5 5 4 4 3 2 1 1 1 1 2 2 2 2 2 2 2 3 4 5 6 6 7 9 11
5 6 7 8 8 8 6 6 6 4 4 5 6 7 6 6 6 5 6 6 6 6 7 7 7 7 6 6 5 5 4 3 3 2 2 2 2 2 2 2 3 3 4 4 5 5 6 7 8
5 5 6 7 7 6 6 5 6 5 5 6 7 8 8 8 8 7 7 8 8 9 10 10 9 8 8 8 8 8 7 6 6 5 5 4 4 3 3 3 3 4 4 4 4 4 5 6 6
5 5 6 7 7 6 6 6 7 8 8 8 9 10 10 9 9 9 9 10 10 11 12 12 11 11 10 10 10 10 10 10 9 9 8 7 6 6 5 4 4 4 4 4 4 4 4 4 5
6 7 7 8 7 8 7 10 9 9 10 11 12 12 11 11 11 11 12 12 12 13 13 13 13 13 13 13 14 14 13 13 13 12 12 11 10 8 8 7 6 5 5 4 4 4 4 4 4
7 8 9 9 9 10 11 12 11 12 12 12 13 13 14 14 14 15 15 15 15 14 14 14 14 14 15 16 16 17 17 17 16 16 16 15 13 12 11 10 9 7 6 5 5 4 4 4 4
9 10 10 11 12 13 15 14 15 15 15 15 15 16 17 17 18 18 18 17 17 16 16 17 17 17 17 18 18 19 19 19 19 19 19 19 18 16 14 13 12 11 9 8 7 6 5 5 4
10 11 12 13 15 16 17 17 18 19 19 20 20 20 21 21 22 22 22 22 22 22 22 21 21 21 20 20 20 20 21 21 22 22 21 21 21 20 18 16 15 14 13 11 10 8 7 6 5
12 13 14 16 17 19 19 20 21 22 23 23 24 25 25 25 25 26 27 27 27 27 27 27 27 26 26 25 25 24 23 23 23 24 23 23 23 22 21 20 18 17 16 14 13 12 10 9 7
14 15 17 18 19 20 21 22 24 25 26 27 27 28 28 29 29 30 31 31 32 32 33 34 33 33 33 32 31 30 28 27 27 26 26 25 25 24 24 23 22 21 20 18 17 15 14 12 11
16 17 18 19 20 21 22 24 26 27 28 29 29 30 30 31 32 32 33 34 35 36 37 37 38 38 37 37 37 37 35 34 32 30 29 28 28 26 26 25 24 24 23 22 21 20 18 16 15
17 18 19 20 21 22 24 25 26 27 27 28 30 31 31 32 32 32 34 35 37 38 38 38 39 39 40 40 40 40 40 39 38 36 34 32 30 30 29 29 28 26 25 23 23 23 22 20 19
18 19 20 21 22 23 24 24 25 26 28 29 31 32 31 30 30 31 32 33 35 36 36 37 37 38 38 39 40 40 40 41 41 41 40 38 35 33 32 30 30 29 28 27 26 26 26 25 23
19 20 21 22 23 24 25 25 26 27 28 29 30 29 29 29 29 29 29 30 31 32 33 34 34 34 35 36 37 38 39 40 41 42 42 42 41 39 37 35 33 32 31 30 29 27 27 27 26
20 21 22 23 23 24 25 25 25 26 27 28 28 27 26 26 27 27 28 28 29 30 31 31 32 32 33 34 35 36 37 38 40 41 42 42 42 42 42 40 38 36 34 32 31 29 28 28 29
20 21 22 23 23 23 24 24 24 25 25 25 25 24 24 25 25 26 26 26 27 27 27 28 29 30 30 31 32 34 35 36 37 39 40 41 42 43 43 42 41 40 38 36 33 31 29 30 31
21 22 22 23 23 23 22 23 23 23 23 23 23 23 24 24 25 25 25 24 24 24 24 24 24 26 27 29 30 31 32 33 35 36 38 39 41 42 42 42 42 42 40 38 36 34 32 31 31
21 22 22 22 21 21 21 20 20 20 20 20 21 22 23 23 23 23 22 22 22 21 21 21 21 22 24 25 26 27 28 30 32 34 36 38 39 41 42 42 42 42 41 40 38 37 34 32 29
20 20 20 20 19 18 18 17 17 17 18 20 21 21 21 20 20 21 21 21 20 20 19 19 19 20 20 21 22 23 25 26 27 29 32 34 37 39 40 41 42 42 42 42 41 39 37 35 33
17 17 17 17 16 16 15 14 14 16 17 18 19 18 18 18 19 20 20 20 20 20 19 19 18 18 17 17 18 19 21 23 25 26 28 31 33 36 38 40 42 42 42 42 42 42 40 38 36
13 14 15 14 14 13 13 11 13 14 15 16 16 16 17 18 19 20 20 21 21 20 19 19 18 17 17 16 16 16 17 19 21 23 25 27 29 31 34 37 40 41 42 42 41 41 41 41 39
12 13 13 12 11 10 10 10 11 13 13 14 15 16 17 18 19 20 20 20 20 21 20 20 19 18 17 16 15 15 16 17 18 20 22 24 26 28 30 33 36 39 41 41 41 41 41 42 41
10 11 10 9 8 8 9 10 11 12 12 14 15 16 17 18 19 20 21 21 21 21 21 21 20 18 17 16 15 14 15 15 16 17 18 21 23 26 28 30 32 35 38 40 41 41 42 42 42
8 8 8 7 8 9 10 10 11 12 13 14 15 17 18 19 20 21 21 21 21 22 22 21 20 19 19 18 16 15 15 14 14 13 14 16 18 21 23 25 28 31 34 36 39 41 41 43 43
6 6 7 7 8 9 10 11 12 13 14 15 16 17 18 18 20 21 21 21 22 22 23 22 21 20 19 18 17 17 16 14 13 13 13 13 14 16 18 21 24 26 29 32 35 38 41 43 44
4 5 6 7 8 9 10 11 12 13 14 16 16 17 18 19 20 21 21 21 22 23 23 22 21 21 20 20 19 18 17 16 14 13 12 11 11 12 15 17 20 23 26 29 32 36 39 42 44
4 5 5 6 7 8 10 11 12 13 14 16 16 17 18 18 19 20 21 21 22 23 23 23 22 21 21 21 20 20 19 17 16 14 13 12 10 10 12 14 17 20 22 25 29 33 36 39 42
3 4 5 6 7 8 9 10 11 13 14 15 16 17 18 18 18 19 20 21 22 23 23 22 22 22 21 21 21 21 20 19 17 16 15 13 12 10 10 12 14 17 19 22 25 29 33 36 39
4 4 5 6 7 8 9 10 11 12 14 15 16 17 18 18 18 19 20 21 22 23 23 23 23 23 22 22 22 22 21 19 18 17 16 15 14 12 11 10 11 13 16 18 22 26 29 32 36
Wind_Direction
52 49 45 41 39 45 46 42 43 47 45 39 31 24 13 2 344 327 317 304 299 300 298 292 294 302 314 340 25 54 63 64 64 64 64 61 55 48 35 317 271 264 263 265 266 263 259 258 259
45 40 41 34 33 40 43 38 37 42 38 27 18 15 10 1 344 321 306 290 284 285 284 280 279 282 286 289 294 304 330 2 28 34 34 34 31 23 9 342 311 291 282 281 277 271 267 263 261
26 31 36 27 25 30 34 31 27 23 19 14 8 3 358 352 342 319 300 282 276 274 271 269 269 270 272 275 277 278 280 284 284 287 294 305 318 332 337 333 320 307 299 295 289 281 275 273 269
3 5 10 9 13 16 13 6 3 1 8 3 353 348 344 342 336 320 302 285 276 271 268 264 264 266 266 268 271 272 272 271 272 273 275 278 283 290 299 309 313 310 305 302 299 290 284 280 275
343 338 338 347 351 347 343 343 343 351 353 348 341 335 333 330 326 317 305 294 284 277 271 260 257 261 262 263 264 266 267 266 265 266 268 269 271 274 277 286 297 303 304 303 303 299 292 289 279
324 318 319 326 326 318 321 332 332 333 336 334 331 327 323 320 316 308 300 290 281 279 276 266 259 258 258 261 259 259 260 261 261 260 261 262 264 265 268 271 277 286 293 296 300 299 293 289 281
314 313 311 311 312 308 309 316 316 315 315 315 314 312 311 309 307 304 299 294 286 279 278 277 274 271 266 265 264 261 259 258 258 259 258 257 258 260 261 263 265 270 277 281 285 290 293 290 282
301 302 302 300 300 301 302 303 303 306 305 302 300 298 297 296 295 294 291 287 286 282 279 279 278 276 275 273 268 262 260 259 257 256 256 255 254 255 256 258 259 260 264 268 271 275 284 285 277
292 294 295 294 295 298 299 300 300 301 301 298 295 293 290 288 287 285 282 280 279 277 276 273 272 272 272 272 271 268 264 263 261 258 257 255 253 252 252 254 255 256 256 259 262 264 268 273 270
286 289 291 293 294 295 297 299 299 299 297 295 294 292 290 287 285 282 280 277 274 271 270 270 269 267 265 264 264 264 265 265 265 262 262 258 254 253 252 251 251 253 253 253 255 258 258 259 261
283 288 291 294 295 296 298 298 297 296 294 293 292 290 288 285 283 280 278 275 272 270 268 265 264 264 263 261 260 260 261 261 262 263 262 261 256 251 252 252 250 250 251 252 251 254 253 252 253
283 288 292 295 296 297 297 296 296 295 294 294 293 292 291 289 286 283 279 277 274 273 269 267 264 262 262 261 259 258 258 256 257 258 260 259 257 253 252 251 250 249 250 251 251 249 248 248 248
285 289 293 295 296 297 297 296 297 296 295 295 296 296 296 295 292 288 286 282 279 277 273 270 267 265 262 260 259 258 257 256 255 255 255 256 257 256 255 253 252 249 250 250 249 247 246 245 245
286 291 295 297 298 298 298 298 298 298 297 297 298 299 299 298 295 293 291 288 285 282 279 276 272 269 266 264 261 258 257 256 256 254 254 253 254 255 254 254 253 252 251 252 253 249 248 243 241
288 293 296 299 301 301 301 301 301 302 301 302 302 302 302 301 300 298 295 293 290 288 285 282 279 275 270 267 265 261 258 256 255 254 253 253 252 252 253 252 252 251 250 250 253 253 252 246 241
290 294 297 300 302 303 304 305 306 306 306 306 307 307 307 306 305 303 301 298 295 293 290 286 282 279 275 271 268 264 261 257 255 254 253 252 250 251 251 251 251 251 250 250 251 251 251 247 242
290 295 299 301 304 307 309 311 311 311 311 313 314 314 314 313 312 310 307 305 302 298 294 290 286 282 279 276 271 268 264 260 256 252 251 250 249 249 250 250 250 251 250 249 251 251 250 250 245
293 298 302 307 311 313 315 316 317 317 319 320 321 321 321 321 320 318 315 313 310 306 301 295 291 287 282 279 275 271 267 263 258 254 250 248 247 246 247 247 247 248 249 248 248 249 249 249 247
297 303 307 312 315 317 320 321 323 325 325 326 327 328 328 328 328 327 326 323 321 317 311 306 301 297 290 282 277 273 270 267 262 257 252 249 247 246 245 245 246 246 246 246 245 245 246 246 245
300 304 309 313 317 321 325 327 328 328 329 331 332 333 334 337 338 338 337 335 333 329 323 318 313 309 301 291 284 278 274 270 266 260 255 251 248 246 244 243 243 244 244 244 244 243 243 243 245
299 306 313 319 323 326 327 330 330 331 333 336 338 340 342 343 343 344 345 345 342 339 336 330 324 321 315 305 296 288 281 276 271 265 259 254 250 247 245 243 242 243 243 243 243 242 241 239 241
306 314 320 324 327 330 333 335 333 336 339 344 346 349 350 350 351 351 351 351 351 349 345 340 335 329 325 319 310 300 292 284 278 271 263 256 251 248 246 243 241 241 241 241 241 240 238 237 237
315 322 325 328 334 340 344 347 346 347 349 353 357 360 0 359 359 358 357 357 357 357 355 352 348 343 336 329 322 312 303 295 286 278 269 260 254 249 247 245 243 241 241 239 239 238 236 235 234
322 328 333 340 350 359 2 5 4 1 3 5 6 5 3 3 2 2 1 1 0 359 359 358 357 354 349 343 336 329 319 309 299 288 278 268 259 252 248 246 244 242 241 240 239 237 235 233 233
332 340 352 7 15 19 18 19 14 12 12 11 10 7 5 5 6 6 6 6 5 4 3 2 2 1 358 355 351 344 337 330 318 305 293 280 266 258 252 248 245 243 242 240 239 237 235 233 231
354 6 17 26 30 28 27 24 19 18 16 12 10 7 6 6 7 8 9 10 9 8 7 7 7 6 5 4 2 358 352 346 337 325 311 293 277 265 257 252 248 245 243 242 239 236 234 232 231
26 29 34 39 39 36 30 26 23 22 18 14 11 9 7 8 9 10 12 12 12 11 11 11 10 10 10 9 7 4 1 358 352 345 337 315 288 274 265 259 253 248 246 245 241 236 234 232 231
56 47 46 45 42 38 34 30 26 21 17 15 13 10 9 9 9 11 13 13 13 13 13 13 13 13 12 12 11 8 5 3 0 356 350 343 321 296 280 269 260 253 250 248 243 238 235 233 231
76 58 51 47 42 37 33 27 21 18 15 14 12 11 10 10 11 13 14 15 15 15 15 15 15 14 12 11 9 9 8 7 6 3 359 351 339 321 302 287 272 261 255 251 245 239 236 234 232
78 59 46 39 33 29 26 24 18 15 14 13 11 10 11 13 15 16 17 17 17 17 18 18 18 16 15 13 11 10 10 9 8 5 2 358 352 340 322 305 290 273 260 254 247 241 237 235 234
Height
5916 5916 5915 5916 5916 5915 5914 5913 5912 5911 5911 5911 5910 5910 5910 5909 5910 5911 5909 5907 5907 5906 5906 5906 5905 5905 5904 5904 5904 5903 5903 5902 5902 5902 5902 5902 5902 5902 5902 5903 5903 5903 5903 5904 5904 5904 5905 5905 5906
5917 5916 5917 5917 5916 5915 5915 5913 5912 5912 5911 5911 5910 5910 5909 5909 5908 5907 5906 5906 5905 5905 5905 5905 5904 5904 5903 5903 5903 5902 5902 5902 5902 5902 5902 5902 5902 5902 5902 5902 5902 5902 5903 5903 5903 5903 5903 5904 5904
5917 5917 5918 5917 5916 5915 5915 5914 5913 5912 5911 5911 5910 5910 5909 5908 5907 5906 5905 5904 5904 5904 5903 5903 5902 5902 5902 5902 5902 5901 5901 5901 5901 5901 5901 5901 5901 5901 5901 5902 5902 5902 5902 5902 5902 5902 5902 5902 5902
5917 5918 5918 5917 5915 5915 5914 5914 5913 5912 5911 5910 5910 5909 5908 5907 5906 5905 5904 5903 5902 5902 5901 5901 5901 5900 5900 5900 5900 5900 5900 5900 5900 5900 5900 5900 5900 5901 5901 5901 5901 5901 5901 5901 5901 5901 5901 5901 5901
5918 5918 5917 5916 5915 5915 5914 5913 5912 5911 5910 5909 5909 5908 5907 5906 5905 5904 5903 5902 5901 5900 5899 5898 5898 5898 5898 5898 5898 5898 5898 5898 5898 5898 5899 5899 5899 5899 5900 5900 5900 5900 5900 5900 5900 5900 5900 5900 5900
5918 5917 5917 5916 5915 5914 5913 5912 5911 5910 5909 5909 5908 5907 5905 5905 5904 5903 5901 5900 5898 5897 5896 5895 5895 5895 5895 5895 5895 5895 5895 5895 5895 5895 5896 5897 5897 5898 5898 5899 5899 5899 5899 5899 5899 5899 5899 5899 5899
5918 5916 5915 5915 5914 5913 5912 5911 5910 5909 5909 5908 5907 5906 5904 5902 5901 5900 5899 5897 5896 5894 5893 5893 5892 5892 5892 5892 5892 5892 5892 5892 5892 5893 5893 5894 5895 5895 5896 5897 5897 5898 5898 5898 5898 5898 5898 5898 5898
5916 5916 5914 5913 5912 5912 5911 5910 5909 5908 5907 5906 5905 5904 5902 5900 5899 5898 5896 5894 5893 5892 5891 5890 5889 5888 5888 5888 5888 5888 5888 5888 5888 5889 5890 5890 5891 5892 5893 5894 5895 5896 5896 5896 5897 5897 5898 5898 5898
5914 5915 5912 5912 5911 5910 5908 5907 5906 5905 5904 5902 5901 5900 5898 5897 5895 5894 5892 5891 5890 5888 5887 5886 5885 5885 5884 5884 5884 5884 5883 5883 5884 5884 5885 5886 5887 5888 5890 5891 5892 5893 5893 5894 5895 5896 5896 5897 5897
5912 5912 5911 5910 5909 5907 5906 5905 5903 5901 5900 5898 5896 5895 5893 5892 5890 5889 5887 5886 5884 5883 5882 5881 5880 5879 5879 5879 5879 5879 5878 5879 5879 5879 5880 5881 5882 5884 5885 5887 5888 5889 5890 5891 5892 5893 5894 5895 5896
5910 5909 5908 5907 5906 5904 5903 5901 5899 5897 5895 5893 5891 5889 5887 5886 5884 5882 5880 5878 5877 5876 5875 5874 5873 5873 5872 5872 5872 5873 5873 5874 5874 5874 5875 5876 5877 5879 5880 5882 5883 5885 5886 5888 5889 5890 5892 5893 5894
5908 5906 5906 5905 5903 5902 5900 5897 5895 5892 5890 5887 5884 5882 5880 5878 5876 5874 5872 5870 5869 5867 5866 5865 5865 5864 5864 5864 5865 5865 5866 5866 5867 5868 5869 5870 5871 5873 5875 5876 5878 5880 5882 5883 5885 5887 5888 5890 5891
5905 5904 5903 5902 5900 5898 5896 5893 5890 5887 5884 5881 5878 5875 5873 5871 5868 5866 5863 5861 5859 5858 5856 5856 5855 5855 5855 5855 5856 5856 5857 5858 5859 5860 5862 5863 5865 5867 5868 5870 5872 5874 5876 5878 5880 5882 5884 5886 5888
5902 5901 5900 5898 5896 5894 5891 5888 5885 5882 5879 5876 5873 5869 5866 5864 5861 5858 5855 5853 5850 5848 5846 5845 5845 5845 5845 5845 5846 5847 5847 5849 5850 5852 5853 5855 5857 5859 5861 5863 5866 5868 5870 5872 5874 5876 5878 5880 5883
5899 5898 5897 5894 5892 5889 5886 5884 5880 5877 5874 5870 5867 5864 5861 5857 5854 5851 5848 5845 5843 5840 5838 5836 5835 5834 5834 5835 5835 5836 5837 5839 5840 5842 5844 5846 5848 5850 5853 5856 5858 5860 5862 5865 5867 5870 5872 5874 5877
5896 5895 5893 5890 5888 5885 5884 5880 5876 5872 5868 5865 5862 5858 5855 5852 5848 5845 5842 5838 5836 5833 5830 5828 5826 5825 5825 5825 5825 5826 5827 5828 5830 5832 5834 5836 5839 5841 5844 5847 5850 5852 5855 5857 5860 5863 5865 5868 5871
5892 5890 5888 5887 5884 5881 5878 5875 5871 5867 5863 5860 5857 5854 5850 5847 5843 5839 5836 5832 5829 5826 5823 5820 5818 5817 5816 5815 5815 5815 5816 5818 5819 5821 5824 5826 5829 5831 5834 5838 5840 5843 5846 5849 5852 5856 5858 5861 5864
5888 5886 5884 5882 5879 5877 5873 5870 5867 5863 5859 5856 5853 5850 5846 5842 5839 5834 5830 5827 5823 5820 5816 5814 5811 5809 5808 5807 5806 5806 5807 5808 5809 5811 5813 5815 5818 5821 5824 5827 5830 5834 5837 5841 5844 5848 5851 5854 5856
5884 5882 5880 5878 5875 5873 5870 5866 5863 5859 5856 5853 5850 5846 5843 5839 5835 5830 5826 5822 5818 5814 5811 5808 5805 5803 5801 5799 5798 5798 5798 5798 5799 5801 5803 5805 5808 5811 5814 5817 5820 5824 5828 5832 5835 5839 5842 5846 5848
5881 5879 5877 5875 5872 5869 5866 5864 5860 5857 5854 5851 5848 5844 5840 5836 5832 5828 5824 5819 5815 5811 5807 5804 5801 5798 5795 5793 5791 5791 5790 5790 5790 5791 5793 5795 5797 5800 5804 5807 5810 5814 5818 5822 5826 5830 5834 5837 5841
5879 5877 5874 5872 5869 5866 5864 5862 5859 5856 5853 5850 5846 5843 5839 5835 5831 5827 5822 5817 5813 5808 5804 5800 5797 5794 5791 5788 5786 5785 5784 5783 5783 5783 5784 5786 5788 5790 5793 5797 5800 5804 5807 5812 5815 5820 5824 5828 5832
5876 5874 5872 5869 5867 5865 5863 5861 5858 5855 5852 5849 5846 5842 5838 5834 5830 5825 5821 5816 5811 5807 5802 5798 5794 5791 5788 5785 5782 5780 5778 5777 5776 5776 5776 5777 5779 5781 5783 5786 5790 5793 5797 5801 5805 5809 5814 5819 5823
5873 5871 5869 5867 5865 5863 5861 5860 5858 5855 5852 5849 5845 5841 5838 5834 5829 5825 5820 5815 5810 5806 5801 5797 5793 5789 5785 5782 5779 5776 5774 5772 5771 5770 5769 5769 5771 5772 5774 5777 5780 5783 5787 5791 5795 5799 5804 5809 5814
5871 5870 5868 5866 5864 5863 5861 5859 5858 5854 5851 5848 5845 5841 5837 5834 5829 5824 5820 5815 5810 5806 5801 5796 5792 5788 5783 5780 5776 5773 5771 5768 5766 5764 5763 5763 5763 5764 5766 5768 5771 5773 5777 5781 5785 5789 5794 5799 5803
5870 5869 5868 5865 5864 5863 5860 5858 5858 5854 5851 5848 5845 5841 5838 5834 5829 5825 5820 5815 5810 5806 5801 5796 5791 5787 5783 5779 5775 5771 5768 5765 5763 5760 5759 5758 5757 5758 5759 5761 5763 5765 5768 5771 5775 5779 5784 5788 5793
5869 5869 5868 5866 5864 5863 5861 5859 5858 5855 5852 5848 5845 5842 5838 5834 5830 5825 5820 5816 5811 5806 5801 5796 5792 5787 5783 5778 5774 5771 5767 5764 5761 5758 5755 5753 5752 5752 5753 5754 5756 5757 5760 5762 5765 5769 5774 5779 5783
5869 5868 5868 5866 5865 5863 5862 5860 5858 5855 5852 5849 5846 5843 5839 5835 5830 5826 5821 5817 5812 5807 5802 5797 5793 5788 5783 5779 5775 5771 5767 5763 5759 5756 5753 5750 5749 5748 5748 5749 5749 5750 5752 5754 5756 5760 5764 5769 5773
5870 5869 5868 5867 5865 5864 5863 5861 5859 5856 5853 5850 5847 5843 5840 5836 5831 5827 5822 5818 5813 5809 5804 5799 5794 5789 5785 5780 5776 5771 5767 5763 5759 5755 5752 5749 5747 5746 5745 5744 5744 5744 5745 5747 5749 5751 5755 5759 5764
5871 5870 5869 5868 5866 5865 5863 5864 5860 5857 5854 5851 5848 5844 5841 5836 5832 5828 5824 5819 5815 5810 5805 5800 5795 5791 5786 5781 5777 5772 5767 5763 5759 5755 5752 5749 5746 5743 5742 5741 5740 5739 5740 5741 5742 5744 5747 5751 5755
5871 5870 5870 5869 5868 5866 5864 5866 5860 5858 5855 5852 5849 5845 5842 5838 5833 5829 5825 5821 5816 5812 5807 5802 5797 5792 5787 5783 5778 5773 5768 5764 5760 5756 5752 5748 5745 5742 5739 5738 5736 5735 5735 5735 5736 5737 5740 5743 5747